#timestamp,LO_Frequency,Hit,StdDev 
1508803215.6,286046990.7,N
1508803235.4,286046990.7,N
1508803255.3,286046989.5,N
1508803275.1,286046990.8,N
1508803295.8,286046990.1,N
1508803315.7,286046996.2,N
1508803335.5,286046995.7,N
1508803355.3,286046996.2,N
1508803375.2,286046995.7,N
1508803395.0,286046995.7,N
1508803395.9,286046995.7,N
1508803415.7,286046995.5,N
1508803435.6,286046994.2,N
1508803455.4,286046996.3,N
1508803475.2,286046994.2,N
1508803495.1,286046992.3,N
1508803496.0,286046992.3,N
1508803515.8,286046992.7,N
1508803535.7,286046992.1,Y
1508803555.5,286047002.8,P
1508803575.3,286047000.7,N
1508803595.2,286047002.6,N
1508803615.9,286046999.8,N
1508803635.7,286046998.6,N
1508803655.6,286047001.8,N
1508803675.4,286046999.8,N
1508803695.2,286046998.3,N
1508803715.1,286046999.1,N
1508803716.0,286046999.1,N
1508803735.8,286046995.7,N
1508803755.6,286046996.5,N
1508803775.5,286047002.7,N
1508803795.3,286047003.6,N
1508803815.1,286046999.8,N
1508803835.9,286047001.6,N
1508803855.7,286047001.8,N
1508803875.5,286047006.0,N
1508803895.4,286047005.6,N
1508803915.2,286047004.4,N
1508803935.1,286047003.6,N
1508803936.0,286047003.6,N
1508803955.8,286047009.2,N
1508803975.6,286047007.8,N
1508803995.5,286047006.4,N
1508804015.3,286047004.5,N
1508804035.1,286047007.6,N
1508804055.9,286047010.6,N
1508804075.7,286047006.5,N
1508804095.5,286047006.5,N
1508804115.4,286047011.8,Y
1508804135.2,286047009.0,P
1508804155.0,286047015.6,P
1508804155.9,286047015.6,N
1508804175.8,286047010.8,N
1508804195.6,286047008.5,N
1508804215.4,286047007.9,N
1508804235.3,286047007.9,N
1508804255.1,286047012.3,Y
1508804275.8,286046995.1,P
1508804295.7,286046996.8,N
1508804315.5,286046998.3,N
1508804335.3,286047000.7,N
1508804355.2,286047001.1,N
1508804375.0,286046997.8,N
1508804375.9,286046997.8,N
1508804395.8,286046994.0,N
1508804415.6,286046993.4,N
1508804435.4,286046993.6,N
1508804455.3,286046993.2,N
1508804475.1,286046994.1,N
1508804476.0,286046994.1,N
1508804495.8,286046992.2,N
1508804515.7,286046988.7,N
1508804535.5,286046989.3,N
1508804555.3,286046991.3,N
1508804575.2,286046992.4,N
1508804595.9,286046991.5,N
1508804615.7,286046989.0,N
1508804635.6,286046988.8,N
1508804655.4,286046992.4,N
1508804675.2,286046992.1,N
1508804695.1,286046993.3,N
1508804696.0,286046993.3,N
1508804715.8,286046995.7,N
1508804735.6,286046994.3,N
1508804755.5,286046996.4,N
1508804775.3,286046994.6,N
1508804795.1,286046993.6,N
1508804815.9,286046996.0,N
1508804835.7,286046995.8,N
1508804855.5,286046992.6,N
1508804875.4,286046989.4,Y
1508804895.2,286046992.1,P
1508804915.0,286046990.7,P
1508804915.9,286046990.7,P
1508804935.8,286046988.7,Y
1508804955.6,286046997.6,P
1508804975.5,286046994.6,N
1508804995.3,286046992.8,P
1508805015.1,286046992.9,Y
1508805035.9,286046998.7,P
1508805055.7,286047001.1,N
1508805075.5,286046998.8,N
1508805095.4,286046997.3,N
1508805115.2,286046995.8,N
1508805135.0,286046996.7,N
1508805135.9,286046996.7,N
1508805155.8,286046996.8,N
1508805175.6,286046997.1,N
1508805195.4,286046997.6,N
1508805215.3,286046995.5,N
1508805235.1,286046996.8,N
1508805255.8,286046999.5,N
1508805275.7,286047000.1,N
1508805295.5,286047002.6,N
1508805315.3,286047002.3,N
1508805335.2,286047000.3,N
1508805355.0,286046998.3,N
1508805355.9,286046998.3,N
1508805375.8,286046998.4,N
1508805395.6,286046998.3,N
1508805415.4,286047000.8,N
1508805435.3,286047000.7,N
1508805455.1,286046999.6,N
1508805456.0,286046999.6,N
1508805475.8,286046998.9,N
1508805495.7,286046997.4,N
1508805515.5,286046996.7,N
1508805535.3,286046998.5,N
1508805555.2,286046999.0,N
1508805575.9,286046995.4,N
1508805595.7,286046996.2,N
1508805615.6,286046993.6,Y
1508805635.4,286046995.4,P
1508805655.2,286046997.5,N
1508805675.1,286046997.7,N
1508805676.0,286046997.7,N
1508805695.8,286046998.4,N
1508805715.6,286047001.2,N
1508805735.5,286047001.4,N
1508805755.3,286047002.1,N
1508805775.1,286046999.7,N
1508805795.9,286047003.5,N
1508805815.7,286047010.2,Y
1508805835.6,286047010.1,P
1508805855.4,286047011.2,N
1508805875.2,286047012.7,N
1508805895.1,286047015.5,N
1508805896.0,286047015.5,N
1508805915.8,286047016.8,Y
1508805935.6,286047003.1,P
1508805955.5,286047007.4,N
1508805975.3,286047006.2,N
1508805995.1,286047010.0,Y
1508806015.9,286047006.0,P
1508806035.7,286047005.3,P
1508806055.6,286047005.5,P
1508806075.4,286047006.0,Y
1508806095.2,286047000.5,P
1508806115.1,286046998.6,N
1508806116.0,286046998.6,N
1508806135.8,286047001.8,N
1508806155.6,286046998.8,N
1508806175.5,286046995.3,N
1508806195.3,286046995.9,N
1508806215.1,286046995.5,N
1508806235.9,286046995.9,N
1508806255.7,286046993.5,N
1508806275.5,286046996.0,N
1508806295.4,286046995.9,N
1508806315.2,286046995.4,N
1508806335.0,286046993.3,N
1508806335.9,286046993.3,N
1508806355.8,286046993.5,N
1508806375.6,286046994.7,N
1508806395.4,286046994.7,N
1508806415.3,286046994.4,N
1508806435.1,286046990.6,N
1508806455.8,286046987.5,Y
1508806475.7,286046988.9,P
1508806495.5,286046989.6,N
1508806515.4,286046993.1,N
1508806535.2,286046991.7,N
1508806555.0,286046993.2,N
1508806555.9,286046993.2,N
1508806575.8,286046992.2,Y
1508806595.6,286047005.0,P
1508806615.4,286047004.1,N
1508806635.3,286047000.4,N
1508806655.1,286046999.9,N
1508806675.8,286047002.7,N
1508806695.7,286046999.4,N
1508806715.5,286046995.9,N
1508806735.3,286046990.6,N
1508806755.2,286046989.0,N
1508806775.0,286046985.6,N
1508806775.9,286046985.6,N
1508806795.7,286046982.5,N
